Tracking 17886 objects as of 9-December-2016
HD Live streaming from Space Station
objects crossing your sky now

CZ-4 DEB

Track CZ-4 DEB now!
10-day predictions


NORAD ID: 26259
Int'l Code: 1999-057EV
Perigee: 669.7 km
Apogee: 798.3 km
Inclination: 98.5 °
Period: 99.3 minutes
Semi major axis: 7104 km
RCS: 0.031 m2 (small)
Launch date: October 14, 1999
Source: People's Republic of China (PRC)
Launch site: Taiyaun Space Center, China (TSC)

Note: This is SATELLITE DEBRIS
Your satellite tracking list
Your tracking list is empty





NASA's NSSDC Master Catalog

Two Line Element Set (TLE):
1 26259U 99057EV  16342.51457403  .00000735  00000-0  19429-3 0  9992
2 26259  98.5428 316.4572 0090502 255.4245 227.9078 14.49633011878092
Source of the keplerian elements: AFSPC